Погода Родино

Погода Родино : погода сейчас, прогноз погоды и архив. Всё, что Вы хотите узнать о погоде Родино!

Поиск расширенной информации на нашем сайте:

Полезная информация: Метка стоматология таганрог.

Другие новости

Новости СМИ2

Главная страница сайта

Новости сайта

02.10.2013

Напоминаем, что на нашем новом сайте вы можете получить высокодетализированные прогнозы погоды по пунктам России, СНГ и мира (включающие важные для авиации метеовеличины, такие как направление и скорость ветра, видимость, явления погоды, количество и форма облачности, нижняя и верхняя граница облачности), а также ознакомиться с разнообразными материалами по авиационной метеорологии и подборкой полезных ссылок на эту тему.

Сайт Метеоцентр.Азия посвящён разработке технологий оптимизации авиаметеорологического обслуживания, включая проектирование и перспективное создание нескольких автоматизированных авиаметеорологических систем:
- система выпуска высокодетальных прогностических карт явлений погоды для нижнего воздушного пространства по России и ближнему зарубежью;
- система верификации прогнозов TAF (выпускаемых синоптиками официальных АМСГ РФ и ближнего зарубежья) и AUTOTAF (выпускаемых сайтом Метеоцентр.Азия) - выявление ошибок, онлайн-сопоставление с фактической погодой METAR, автоматическое внесение коррективов в прогнозы при резком отклонении фактической погоды от прогноза, подсчёт оправдываемости прогнозов по элементам и в целом;
- система обработки, анализа и отображения авиаметеорологической информации для применения провайдерами метеорологической информации.

Рекомендуем: бани сауны екатеринбурга

Погода Родино - сегодня

Время (UTC), дата Ветер
(°,м/с) 
Видим.   Явления Облачность Т
(°С)
Тd
(°С)
f(%) Тe
(°С)
Pmin
(гПа)
dP
(гПа)
Po
(мм)
O2
(г/м3)
Тmin Tmax R s Состояние
почвы
21 23.06.17 080 (В) 20000 м    9/9 300 м кучево-дожд. 
[Cb cap]
+18.5 +14.5 78 +27  1002.5  -0.7  738  276           
00 24.06.17 080 (В) 20000 м  в посл. час ливневой дождь  9/9 300 м кучево-дожд. 
[Cb cap]
+18.8 +15.4 81 +29  1000.9  -1.5  737  275  +18.4      влажная 
03 24.06.17 100 (В) 20000 м    9/0 кучево-дожд. 
[Cb cap]
+22.1 +16.9 72 +35  1000.4  -0.4  737  271           
06 24.06.17 070 (В) 20000 м    9/3 300 м кучево-дожд., верхняя 
[Cb cap|Cc]
+26.2 +18.5 63 +42  998.9  -1.2  736  266           
09 24.06.17 070 (В) 20000 м    9/5 300 м кучево-дожд., верхняя 
[Cb cap|Ci sp]
+30.6 +19.1 50 +48  997  -1.7  735  262           
12 24.06.17 180 (Ю) 4{13}  20000 м  {гроза}  9/8 300 м кучево-дожд., верхняя 
[Cb cap|Ci sp]
+25.5 +17.4 61 +39  997.9  0.7  735  267    +31.1       
15 24.06.17 150 (ЮВ) 3{11}  20000 м    9/9 300 м кучево-дожд. 
[Cb cap]
+23.6 +17 67 +37  997.2  -0.8  734  269           
18 24.06.17 170 (Ю) 20000 м  зарница  4/4 300 м кучево-дожд. 
[Cb cap]
+21.2 +17.5 79 +35  997.9  0.4  735  271           
21 24.06.17 220 (ЮЗ) 20000 м    8/8 300 м кучево-дожд. 
[Cb cap]
+19.4 +18.1 92 +35  998.9  736  272           
00 25.06.17 240 (ЮЗ) 20000 м    9/9 300 м кучево-дожд. 
[Cb cap]
+19.5 +18.1 92 +35  1001.1  2.2  737  273  +19.1        сухая 
06 25.06.17 280 (З) 20000 м    8/8 300 м кучево-дожд. 
[Cb cap]
+22.8 +15.6 64 +33  1005.7  1.2  741  272           
09 25.06.17 280 (З) 20000 м    8/5 300 м кучево-дожд., верхняя 
[Cb cap|Ci sp]
+25.7 +14.6 50 +34  1006.1  0.5  741  270           
12 25.06.17 320 (СЗ) 20000 м    6/4 300 м кучево-дожд., верхняя 
[Cb cap|Ci sp]
+25.2 +15.5 55 +35  1006.3  0.1  741  270    +26.4       
18 25.06.17 180 (Ю) 20000 м  {гроза, ливн. осадки}  8/5 300 м кучево-дожд., верхняя 
[Cb cap|Ci sp]
+18.5 +16 85 +30  1007.8  0.1  742  277           
21 25.06.17 180 (Ю) 20000 м    9/9 300 м кучево-дожд. 
[Cb cap]
+19.1 +16.8 87 +32  1008.3  0.5  742  276           
00 26.06.17 190 (Ю) 20000 м    6/3 300 м кучево-дожд., средняя, верхняя 
[Cb cap|Ac trans|Ci sp]
+18.8 +16.7 88 +32  1008.7  0.4  743  276  +18    0.7    влажная 
03 26.06.17 220 (ЮЗ) 20000 м    3/1 600 м верхняя 
[Cu hum|Ci sp]
+24.1 +18.4 70 +40  1008.3  743  271           
06 26.06.17 220 (ЮЗ) 20000 м    4/3 600 м верхняя 
[Cu med, cong|Ci sp]
+28.1 +14.6 44 +36  1008.2  743  268           
09 26.06.17 190 (Ю) 20000 м    5/4 600 м верхняя 
[Cu med, cong|Ci sp]
+29.9 +13 35 +36  1007.2  -0.9  742  267           
12 26.06.17 170 (Ю) 20000 м    6/4 300 м кучево-дожд., верхняя 
[Cb cap|Ci sp]
+28 +15.1 45 +37  1006.7  -0.5  742  268    +30.7       
15 26.06.17 330 (СЗ) 20000 м    6/4 300 м кучево-дожд., верхняя 
[Cb cap|Ci sp]
+24.2 +15.4 58 +34  1008.2  1.2  743  272           
18 26.06.17 100 (В) 20000 м    8/5 300 м кучево-дожд., средняя, верхняя 
[Cb cap|Ac trans|Ci sp]
+20.1 +14.9 72 +29  1008.5  743  276           
21 26.06.17 140 (ЮВ) 20000 м    4/0 верхняя 
[Ci sp]
+18.2 +13.6 75 +27  1008.4  -0.2  742  278           
00 27.06.17 160 (Ю) 20000 м    8/5 300 м кучево-дожд., средняя, верхняя 
[Cb cap|Ac trans|Ci sp]
+23.1 +16.5 66 +35  1007.5  -0.6  742  272  +16.7        сухая 
03 27.06.17 070 (В) 20000 м    8/5 300 м кучево-дожд., средняя, верхняя 
[Cb cap|Ac trans|Ci sp]
+25.2 +17.9 64 +40  1006.2  -1  741  269           
Время (UTC), дата Ветер
(°,м/с) 
Видим.   Явления Облачность Т
(°С)
Тd
(°С)
f(%) Тe
(°С)
Pmin
(гПа)
dP
(гПа)
Po
(мм)
O2
(г/м3)
Тmin Tmax R s Состояние
почвы

Для получения пояснительной информации подведите курсор к названию столбца.

ПОГОДА Родино - архив

Всё, что Вы хотите узнать о погоде Родино - удобно и подробно!

Выберите нужную дату (начиная с 1 января 2015* года) и нажмите кнопку "Найти".
Будут отображены архивные сводки погоды по пункту Родино, начиная с указанной даты.


Отображать данные в формате CSV (для использования в таблицах Excel)


Внимание! Наш архив погоды предназначен исключительно для личного некоммерческого использования в познавательных целях. Если Вам необходимы официальные справки о состоянии погоды (для производственных, юридических, коммерческих и т.п. целей), обращайтесь в органы Росгидромета.

*Примечание: данная дата относится к архиву по метеостанциям СССР (Россия, СНГ, Балтия).
Архив по метеостанциям Зарубежной Европы и Азии (кроме Китая) хранится 10 дней, по другим регионам земного шара (Китай, Африка, Америка, Австралия, Океания) - 1 день.

Родино - район местоположения метеостанции


Название, широта, долгота, высота метеостанции:
Родино 52.5°ш. 80.2°д. 59 м над ур. моря [Российская Федерация]

Дополнительная информация

В oтличие oт бoльшинства пoгoдных сайтoв мы публикуем пoдрoбную метеoинфoрмацию в детальнoм прoфессиoнальнoм фoрмате.

Характеристики температуры и влажнoсти вoздуха измеряются на высoте 2 м в тени вдали oт зданий и деревьев.
Скoрoсть ветра измеряется на высoте 10 м (на урoвне рoста челoвека скoрoсть ветра ниже в 1.5-2 раза). Если метеoстанция нахoдится в гoрoде или в лесу, тo скoрoсть ветра занижена на 2-4 м/с пo сравнению с oткрытым местoм. Скoрoсть ветра над акватoриями крупных рек и oзёр, а также на вершинах хoлмoв на 2-5 м/с выше, чем в oбычных услoвиях.
Атмoсфернoе давление в разных тoчках местнoсти мoжет значительнo oтличаться oт давления на метеoстанции, в зависимoсти oт услoвий рельефа (при пoдъёме на 10 м давление пoнижается примернo на 1 мм рт.ст.).